Time,TemperatureF,DewpointF,PressureIn,WindDirection,WindDirectionDegrees,WindSpeedMPH,WindSpeedGustMPH,Humidity,HourlyPrecipIn,Conditions,Clouds,dailyrainin,SoftwareType,DateUTC
2013-09-01 00:00:00,71.8,99.9,29.91,ENE,70,5.0,13.0,0,0.00,CLR,,0.00,WeatherDisplay:10.37,2013-09-01 05:00:00,
2013-09-01 00:05:00,71.8,99.9,29.91,ENE,66,7.0,13.0,0,0.00,CLR,,0.00,WeatherDisplay:10.37,2013-09-01 05:05:00,
2013-09-01 00:10:00,71.0,99.9,29.91,ENE,73,13.0,20.0,0,0.00,CLR,,0.00,WeatherDisplay:10.37,2013-09-01 05:10:00,
2013-09-01 00:20:00,70.4,99.9,29.91,East,88,7.0,20.0,0,0.00,CLR,,0.00,WeatherDisplay:10.37,2013-09-01 05:20:00,
2013-09-01 00:25:00,70.6,99.9,29.91,East,81,5.0,8.0,0,0.00,CLR,,0.00,WeatherDisplay:10.37,2013-09-01 05:25:00,
2013-09-01 00:30:00,70.9,99.9,29.91,ENE,65,1.0,6.0,0,0.00,CLR,,0.00,WeatherDisplay:10.37,2013-09-01 05:30:00,
2013-09-01 00:35:00,70.2,99.9,29.91,East,83,8.0,14.0,0,0.00,CLR,,0.00,WeatherDisplay:10.37,2013-09-01 05:35:00,
2013-09-01 00:40:00,69.7,99.9,29.91,East,85,2.0,13.0,0,0.00,CLR,,0.00,WeatherDisplay:10.37,2013-09-01 05:40:00,
2013-09-01 00:45:00,69.5,99.9,29.91,East,79,3.0,10.0,0,0.00,CLR,,0.00,WeatherDisplay:10.37,2013-09-01 05:45:00,
2013-09-01 00:50:00,69.0,99.9,29.91,ENE,76,7.0,13.0,0,0.00,CLR,,0.00,WeatherDisplay:10.37,2013-09-01 05:50:00,
2013-09-01 00:55:00,69.3,99.9,29.91,East,84,9.0,16.0,0,0.00,CLR,,0.00,WeatherDisplay:10.37,2013-09-01 05:55:00,
2013-09-01 01:00:00,69.3,99.9,29.91,East,84,3.0,9.0,0,0.02,RA,,0.02,WeatherDisplay:10.37,2013-09-01 06:00:00,
2013-09-01 01:05:00,68.5,99.9,29.91,East,90,0.0,7.0,0,0.11,RA,,0.13,WeatherDisplay:10.37,2013-09-01 06:05:00,
2013-09-01 01:10:00,68.4,99.9,29.91,ESE,104,0.0,0.0,0,0.00,RA,,0.13,WeatherDisplay:10.37,2013-09-01 06:10:00,
2013-09-01 01:15:00,68.2,99.9,29.91,ESE,108,0.0,3.0,0,0.01,RA,,0.14,WeatherDisplay:10.37,2013-09-01 06:15:00,
2013-09-01 01:20:00,68.1,99.9,29.91,ESE,107,2.0,6.0,0,0.00,RA,,0.14,WeatherDisplay:10.37,2013-09-01 06:20:00,
2013-09-01 01:30:00,67.6,99.9,29.91,East,86,6.0,8.0,0,0.00,CLR,,0.14,WeatherDisplay:10.37,2013-09-01 06:30:00,
2013-09-01 01:35:00,67.1,99.9,29.91,East,94,8.0,12.0,0,0.00,CLR,,0.14,WeatherDisplay:10.37,2013-09-01 06:35:00,
2013-09-01 01:40:00,67.1,99.9,29.91,East,90,12.0,16.0,0,0.00,CLR,,0.14,WeatherDisplay:10.37,2013-09-01 06:40:00,
2013-09-01 01:45:00,67.0,99.9,29.91,East,90,8.0,13.0,0,0.00,CLR,,0.14,WeatherDisplay:10.37,2013-09-01 06:45:00,
2013-09-01 01:50:00,67.0,99.9,29.91,East,92,7.0,13.0,0,0.00,CLR,,0.14,WeatherDisplay:10.37,2013-09-01 06:50:00,
2013-09-01 01:55:00,67.1,99.9,29.91,East,91,6.0,10.0,0,0.00,CLR,,0.14,WeatherDisplay:10.37,2013-09-01 06:55:00,
2013-09-01 02:00:00,67.2,99.9,29.91,East,94,6.0,8.0,0,0.00,CLR,,0.14,WeatherDisplay:10.37,2013-09-01 07:00:00,
2013-09-01 02:05:00,67.2,99.9,29.91,East,96,6.0,8.0,0,0.00,CLR,,0.14,WeatherDisplay:10.37,2013-09-01 07:05:00,
2013-09-01 02:10:00,67.3,99.9,29.91,East,93,2.0,6.0,0,0.00,CLR,,0.14,WeatherDisplay:10.37,2013-09-01 07:10:00,
2013-09-01 02:15:00,67.5,99.9,29.91,East,90,0.0,4.0,0,0.00,CLR,,0.14,WeatherDisplay:10.37,2013-09-01 07:15:00,
2013-09-01 02:20:00,67.6,99.9,29.91,East,91,0.0,2.0,0,0.00,CLR,,0.14,WeatherDisplay:10.37,2013-09-01 07:20:00,
2013-09-01 02:25:00,67.8,99.9,29.91,East,92,0.0,0.0,0,0.00,CLR,,0.14,WeatherDisplay:10.37,2013-09-01 07:25:00,
2013-09-01 02:30:00,67.9,99.9,29.91,ENE,77,2.0,4.0,0,0.00,CLR,,0.14,WeatherDisplay:10.37,2013-09-01 07:30:00,
2013-09-01 02:35:00,67.7,99.9,29.91,NW,313,3.0,4.0,0,0.01,RA,,0.15,WeatherDisplay:10.37,2013-09-01 07:35:00,
2013-09-01 02:40:00,67.5,99.9,29.91,WNW,292,5.0,6.0,0,0.01,RA,,0.16,WeatherDisplay:10.37,2013-09-01 07:40:00,
2013-09-01 02:45:00,67.4,99.9,29.91,WNW,285,7.0,9.0,0,0.00,RA,,0.16,WeatherDisplay:10.37,2013-09-01 07:45:00,
2013-09-01 02:50:00,67.5,99.9,29.91,WNW,286,5.0,9.0,0,0.00,,,0.16,WeatherDisplay:10.37,2013-09-01 07:50:00,
2013-09-01 02:55:00,67.7,99.9,29.91,WNW,289,0.0,4.0,0,0.00,CLR,,0.16,WeatherDisplay:10.37,2013-09-01 07:55:00,
2013-09-01 03:00:00,67.9,99.9,29.91,WNW,293,0.0,0.0,0,0.00,CLR,,0.16,WeatherDisplay:10.37,2013-09-01 08:00:00,
2013-09-01 03:05:00,67.9,99.9,29.91,WNW,293,0.0,0.0,0,0.00,CLR,,0.16,WeatherDisplay:10.37,2013-09-01 08:05:00,
2013-09-01 03:10:00,67.8,99.9,29.91,WNW,293,0.0,0.0,0,0.00,CLR,,0.16,WeatherDisplay:10.37,2013-09-01 08:10:00,
2013-09-01 03:15:00,67.5,99.9,29.91,WNW,293,0.0,1.0,0,0.00,CLR,,0.16,WeatherDisplay:10.37,2013-09-01 08:15:00,
2013-09-01 03:20:00,67.5,99.9,29.91,WNW,293,0.0,0.0,0,0.00,CLR,,0.16,WeatherDisplay:10.37,2013-09-01 08:20:00,
2013-09-01 03:25:00,67.4,99.9,29.91,WNW,293,0.0,0.0,0,0.00,CLR,,0.16,WeatherDisplay:10.37,2013-09-01 08:25:00,
2013-09-01 03:30:00,67.5,99.9,29.91,WNW,293,0.0,0.0,0,0.00,CLR,,0.16,WeatherDisplay:10.37,2013-09-01 08:30:00,
2013-09-01 03:35:00,67.5,99.9,29.91,WNW,293,0.0,0.0,0,0.00,CLR,,0.16,WeatherDisplay:10.37,2013-09-01 08:35:00,
2013-09-01 03:40:00,67.4,99.9,29.91,WNW,293,0.0,0.0,0,0.00,CLR,,0.16,WeatherDisplay:10.37,2013-09-01 08:40:00,
2013-09-01 03:45:00,67.3,99.9,29.91,WNW,293,1.0,3.0,0,0.00,CLR,,0.16,WeatherDisplay:10.37,2013-09-01 08:45:00,
2013-09-01 03:50:00,67.0,99.9,29.91,WNW,293,2.0,3.0,0,0.00,CLR,,0.16,WeatherDisplay:10.37,2013-09-01 08:50:00,
2013-09-01 03:55:00,67.0,99.9,29.91,WNW,293,1.0,3.0,0,0.00,CLR,,0.16,WeatherDisplay:10.37,2013-09-01 08:55:00,
2013-09-01 04:00:00,66.8,99.9,29.91,WNW,293,0.0,0.0,0,0.00,CLR,,0.16,WeatherDisplay:10.37,2013-09-01 09:00:00,
2013-09-01 04:05:00,66.7,99.9,29.91,WNW,289,3.0,5.0,0,0.00,CLR,,0.16,WeatherDisplay:10.37,2013-09-01 09:05:00,
2013-09-01 04:10:00,66.5,99.9,29.91,WNW,289,2.0,4.0,0,0.00,CLR,,0.16,WeatherDisplay:10.37,2013-09-01 09:10:00,
2013-09-01 04:15:00,66.4,99.9,29.91,WNW,294,3.0,5.0,0,0.00,CLR,,0.16,WeatherDisplay:10.37,2013-09-01 09:15:00,
2013-09-01 04:20:00,66.3,99.9,29.91,WNW,301,3.0,5.0,0,0.00,CLR,,0.16,WeatherDisplay:10.37,2013-09-01 09:20:00,
2013-09-01 04:25:00,66.4,99.9,29.91,NW,308,5.0,6.0,0,0.00,CLR,,0.16,WeatherDisplay:10.37,2013-09-01 09:25:00,
2013-09-01 04:30:00,66.4,99.9,29.91,NW,311,3.0,5.0,0,0.00,CLR,,0.16,WeatherDisplay:10.37,2013-09-01 09:30:00,
2013-09-01 04:35:00,66.2,99.9,29.91,NW,310,0.0,5.0,0,0.00,CLR,,0.16,WeatherDisplay:10.37,2013-09-01 09:35:00,
2013-09-01 04:40:00,66.1,99.9,29.91,NW,310,0.0,4.0,0,0.00,CLR,,0.16,WeatherDisplay:10.37,2013-09-01 09:40:00,
2013-09-01 04:45:00,66.0,99.9,29.91,NW,310,0.0,0.0,0,0.00,CLR,,0.16,WeatherDisplay:10.37,2013-09-01 09:45:00,
2013-09-01 04:50:00,66.0,99.9,29.91,NW,310,0.0,0.0,0,0.00,CLR,,0.16,WeatherDisplay:10.37,2013-09-01 09:50:00,
2013-09-01 04:55:00,65.9,99.9,29.91,NW,310,0.0,0.0,0,0.00,CLR,,0.16,WeatherDisplay:10.37,2013-09-01 09:55:00,
2013-09-01 05:00:00,65.8,99.9,29.91,NW,310,0.0,0.0,0,0.00,CLR,,0.16,WeatherDisplay:10.37,2013-09-01 10:00:00,
2013-09-01 05:05:00,65.7,99.9,29.91,NW,310,0.0,0.0,0,0.00,CLR,,0.16,WeatherDisplay:10.37,2013-09-01 10:05:00,
2013-09-01 05:10:00,65.4,99.9,29.91,NW,310,0.0,0.0,0,0.00,CLR,,0.16,WeatherDisplay:10.37,2013-09-01 10:10:00,
2013-09-01 05:15:00,65.2,99.9,29.91,NW,310,0.0,0.0,0,0.00,CLR,,0.16,WeatherDisplay:10.37,2013-09-01 10:15:00,
2013-09-01 05:20:00,65.2,99.9,29.91,NW,310,0.0,0.0,0,0.00,CLR,,0.16,WeatherDisplay:10.37,2013-09-01 10:20:00,
2013-09-01 05:25:00,64.8,99.9,29.91,NW,310,0.0,0.0,0,0.00,CLR,,0.16,WeatherDisplay:10.37,2013-09-01 10:25:00,
2013-09-01 05:30:00,64.6,99.9,29.91,NW,310,0.0,0.0,0,0.00,CLR,,0.16,WeatherDisplay:10.37,2013-09-01 10:30:00,
2013-09-01 05:35:00,64.6,99.9,29.91,NW,310,0.0,0.0,0,0.00,CLR,,0.16,WeatherDisplay:10.37,2013-09-01 10:35:00,
2013-09-01 05:40:00,64.6,99.9,29.91,NW,310,0.0,0.0,0,0.00,CLR,,0.16,WeatherDisplay:10.37,2013-09-01 10:40:00,
2013-09-01 05:45:00,64.5,99.9,29.91,NW,310,0.0,0.0,0,0.00,CLR,,0.16,WeatherDisplay:10.37,2013-09-01 10:45:00,
2013-09-01 05:50:00,64.3,99.9,29.91,NW,310,0.0,0.0,0,0.00,CLR,,0.16,WeatherDisplay:10.37,2013-09-01 10:50:00,
2013-09-01 05:55:00,64.1,99.9,29.91,NW,310,0.0,0.0,0,0.00,CLR,,0.16,WeatherDisplay:10.37,2013-09-01 10:55:00,
2013-09-01 06:00:00,63.8,99.9,29.91,NW,310,0.0,0.0,0,0.00,CLR,,0.16,WeatherDisplay:10.37,2013-09-01 11:00:00,
2013-09-01 06:05:00,63.6,99.9,29.91,NW,310,0.0,0.0,0,0.00,CLR,,0.16,WeatherDisplay:10.37,2013-09-01 11:05:00,
2013-09-01 06:10:00,63.4,99.9,29.91,NW,310,0.0,0.0,0,0.00,CLR,,0.16,WeatherDisplay:10.37,2013-09-01 11:10:00,
2013-09-01 06:15:00,63.2,99.9,29.91,NW,310,0.0,0.0,0,0.00,CLR,,0.16,WeatherDisplay:10.37,2013-09-01 11:15:00,
2013-09-01 06:20:00,63.0,99.9,29.91,NW,310,0.0,0.0,0,0.00,CLR,,0.16,WeatherDisplay:10.37,2013-09-01 11:20:00,
2013-09-01 06:25:00,62.8,99.9,29.91,NW,310,0.0,0.0,0,0.00,CLR,,0.16,WeatherDisplay:10.37,2013-09-01 11:25:00,
2013-09-01 06:30:00,62.6,99.9,29.91,NW,310,0.0,0.0,0,0.00,CLR,,0.16,WeatherDisplay:10.37,2013-09-01 11:30:00,
2013-09-01 06:35:00,62.3,99.9,29.91,NW,310,0.0,0.0,0,0.00,CLR,,0.16,WeatherDisplay:10.37,2013-09-01 11:35:00,
2013-09-01 06:40:00,62.4,99.9,29.91,NW,310,0.0,0.0,0,0.00,CLR,,0.16,WeatherDisplay:10.37,2013-09-01 11:40:00,
2013-09-01 06:45:00,62.1,99.9,29.91,NW,310,0.0,0.0,0,0.00,CLR,,0.16,WeatherDisplay:10.37,2013-09-01 11:45:00,
2013-09-01 06:50:00,62.0,99.9,29.91,NW,310,0.0,0.0,0,0.00,CLR,,0.16,WeatherDisplay:10.37,2013-09-01 11:50:00,
2013-09-01 06:55:00,61.8,99.9,29.91,NW,310,0.0,0.0,0,0.01,RA,,0.17,WeatherDisplay:10.37,2013-09-01 11:55:00,
2013-09-01 07:00:00,61.5,99.9,29.91,NW,310,0.0,0.0,0,0.00,RA,,0.17,WeatherDisplay:10.37,2013-09-01 12:00:00,
2013-09-01 07:05:00,61.4,99.9,29.91,NW,310,0.0,0.0,0,0.00,,,0.17,WeatherDisplay:10.37,2013-09-01 12:05:00,
2013-09-01 07:10:00,61.5,99.9,29.91,NW,310,0.0,0.0,0,0.00,CLR,,0.17,WeatherDisplay:10.37,2013-09-01 12:10:00,
2013-09-01 07:15:00,61.5,99.9,29.91,NW,310,0.0,0.0,0,0.00,CLR,,0.17,WeatherDisplay:10.37,2013-09-01 12:15:00,
2013-09-01 07:20:00,61.7,99.9,29.91,NW,310,0.0,0.0,0,0.00,CLR,,0.17,WeatherDisplay:10.37,2013-09-01 12:20:00,
2013-09-01 07:25:00,61.9,99.9,29.91,NW,310,0.0,0.0,0,0.00,CLR,,0.17,WeatherDisplay:10.37,2013-09-01 12:25:00,
2013-09-01 07:30:00,62.0,99.9,29.91,NW,310,0.0,0.0,0,0.00,CLR,,0.17,WeatherDisplay:10.37,2013-09-01 12:30:00,
2013-09-01 07:35:00,62.3,99.9,29.91,NW,310,0.0,0.0,0,0.00,CLR,,0.17,WeatherDisplay:10.37,2013-09-01 12:35:00,
2013-09-01 07:40:00,62.7,99.9,29.91,NW,310,0.0,0.0,0,0.00,CLR,,0.17,WeatherDisplay:10.37,2013-09-01 12:40:00,
2013-09-01 07:45:00,63.2,99.9,29.91,NW,310,0.0,0.0,0,0.00,CLR,,0.17,WeatherDisplay:10.37,2013-09-01 12:45:00,
2013-09-01 07:50:00,63.4,99.9,29.91,NW,310,0.0,0.0,0,0.00,CLR,,0.17,WeatherDisplay:10.37,2013-09-01 12:50:00,
2013-09-01 07:55:00,63.7,99.9,29.91,NW,310,0.0,0.0,0,0.00,CLR,,0.17,WeatherDisplay:10.37,2013-09-01 12:55:00,
2013-09-01 08:05:00,64.0,99.9,29.91,NW,310,0.0,0.0,0,0.00,CLR,,0.17,WeatherDisplay:10.37,2013-09-01 13:05:00,
2013-09-01 08:10:00,64.3,99.9,29.91,NW,310,0.0,0.0,0,0.00,CLR,,0.17,WeatherDisplay:10.37,2013-09-01 13:10:00,
2013-09-01 08:15:00,64.6,99.9,29.91,NW,310,1.0,3.0,0,0.00,CLR,,0.17,WeatherDisplay:10.37,2013-09-01 13:15:00,
2013-09-01 08:20:00,64.8,99.9,29.91,NW,306,5.0,6.0,0,0.00,CLR,,0.17,WeatherDisplay:10.37,2013-09-01 13:20:00,
2013-09-01 08:25:00,64.9,99.9,29.91,NW,304,2.0,5.0,0,0.00,CLR,,0.17,WeatherDisplay:10.37,2013-09-01 13:25:00,
2013-09-01 08:30:00,65.2,99.9,29.91,WNW,303,1.0,4.0,0,0.00,CLR,,0.17,WeatherDisplay:10.37,2013-09-01 13:30:00,
2013-09-01 08:35:00,65.4,99.9,29.91,NW,304,0.0,0.0,0,0.00,CLR,,0.17,WeatherDisplay:10.37,2013-09-01 13:35:00,
2013-09-01 08:40:00,65.8,99.9,29.91,NW,304,0.0,3.0,0,0.00,CLR,,0.17,WeatherDisplay:10.37,2013-09-01 13:40:00,
2013-09-01 08:45:00,65.9,99.9,29.91,NW,308,5.0,6.0,0,0.00,CLR,,0.17,WeatherDisplay:10.37,2013-09-01 13:45:00,
2013-09-01 08:50:00,66.0,99.9,29.91,NW,309,3.0,6.0,0,0.00,CLR,,0.17,WeatherDisplay:10.37,2013-09-01 13:50:00,
2013-09-01 08:55:00,66.3,99.9,29.91,NW,309,3.0,6.0,0,0.00,CLR,,0.17,WeatherDisplay:10.37,2013-09-01 13:55:00,
2013-09-01 09:00:00,66.7,99.9,29.91,NW,309,3.0,6.0,0,0.00,CLR,,0.17,WeatherDisplay:10.37,2013-09-01 14:00:00,
2013-09-01 09:05:00,66.8,99.9,29.91,NW,310,3.0,6.0,0,0.00,CLR,,0.17,WeatherDisplay:10.37,2013-09-01 14:05:00,
2013-09-01 09:10:00,67.7,99.9,29.91,NW,309,5.0,6.0,0,0.00,CLR,,0.17,WeatherDisplay:10.37,2013-09-01 14:10:00,
2013-09-01 09:15:00,68.5,99.9,29.91,NW,308,2.0,6.0,0,0.00,CLR,,0.17,WeatherDisplay:10.37,2013-09-01 14:15:00,
2013-09-01 09:20:00,68.8,99.9,29.91,NW,307,5.0,8.0,0,0.00,CLR,,0.17,WeatherDisplay:10.37,2013-09-01 14:20:00,
2013-09-01 09:25:00,69.7,99.9,29.91,NW,304,5.0,7.0,0,0.00,CLR,,0.17,WeatherDisplay:10.37,2013-09-01 14:25:00,
2013-09-01 09:30:00,69.8,99.9,29.91,WNW,301,5.0,7.0,0,0.00,CLR,,0.17,WeatherDisplay:10.37,2013-09-01 14:30:00,
2013-09-01 09:35:00,69.9,99.9,29.91,WNW,303,0.0,6.0,0,0.00,CLR,,0.17,WeatherDisplay:10.37,2013-09-01 14:35:00,
2013-09-01 09:40:00,69.7,99.9,29.91,NW,308,5.0,6.0,0,0.00,CLR,,0.17,WeatherDisplay:10.37,2013-09-01 14:40:00,
2013-09-01 09:45:00,69.5,99.9,29.91,NW,308,5.0,6.0,0,0.00,CLR,,0.17,WeatherDisplay:10.37,2013-09-01 14:45:00,
2013-09-01 09:55:00,69.8,99.9,29.91,WNW,303,2.0,5.0,0,0.00,CLR,,0.17,WeatherDisplay:10.37,2013-09-01 14:55:00,
2013-09-01 10:00:00,70.1,99.9,29.91,NW,306,1.0,6.0,0,0.00,CLR,,0.17,WeatherDisplay:10.37,2013-09-01 15:00:00,
2013-09-01 10:05:00,70.2,99.9,29.91,NW,307,0.0,6.0,0,0.00,CLR,,0.17,WeatherDisplay:10.37,2013-09-01 15:05:00,
2013-09-01 10:10:00,70.6,99.9,29.91,NW,307,3.0,6.0,0,0.00,CLR,,0.17,WeatherDisplay:10.37,2013-09-01 15:10:00,
2013-09-01 10:15:00,70.9,99.9,29.91,NW,307,5.0,7.0,0,0.00,CLR,,0.17,WeatherDisplay:10.37,2013-09-01 15:15:00,
2013-09-01 10:30:00,72.1,99.9,29.91,NW,307,5.0,8.0,0,0.00,RA,,0.17,WeatherDisplay:10.37,2013-09-01 15:30:00,
2013-09-01 10:40:00,73.4,99.9,29.91,NW,308,5.0,8.0,0,0.00,CLR,,0.17,WeatherDisplay:10.37,2013-09-01 15:40:00,
2013-09-01 10:45:00,75.1,99.9,29.91,NW,310,1.0,7.0,0,0.00,CLR,,0.17,WeatherDisplay:10.37,2013-09-01 15:45:00,
2013-09-01 10:50:00,76.5,99.9,29.91,NW,320,1.0,6.0,0,0.00,CLR,,0.17,WeatherDisplay:10.37,2013-09-01 15:50:00,
2013-09-01 10:55:00,77.8,99.9,29.91,NNW,332,1.0,6.0,0,0.00,CLR,,0.17,WeatherDisplay:10.37,2013-09-01 15:55:00,
2013-09-01 11:00:00,79.4,99.9,29.91,NW,325,3.0,7.0,0,0.00,CLR,,0.17,WeatherDisplay:10.37,2013-09-01 16:00:00,
2013-09-01 11:05:00,79.9,99.9,29.91,NW,318,6.0,9.0,0,0.00,CLR,,0.17,WeatherDisplay:10.37,2013-09-01 16:05:00,
2013-09-01 11:10:00,80.7,99.9,29.91,NW,326,1.0,6.0,0,0.00,CLR,,0.17,WeatherDisplay:10.37,2013-09-01 16:10:00,
2013-09-01 11:15:00,82.6,99.9,29.91,NW,325,1.0,7.0,0,0.00,CLR,,0.17,WeatherDisplay:10.37,2013-09-01 16:15:00,
2013-09-01 11:20:00,82.8,99.9,29.91,NW,313,6.0,9.0,0,0.00,CLR,,0.17,WeatherDisplay:10.37,2013-09-01 16:20:00,
2013-09-01 11:25:00,84.3,99.9,29.91,NW,315,7.0,13.0,0,0.00,CLR,,0.17,WeatherDisplay:10.37,2013-09-01 16:25:00,
2013-09-01 11:30:00,84.8,99.9,29.91,NW,316,2.0,12.0,0,0.00,CLR,,0.17,WeatherDisplay:10.37,2013-09-01 16:30:00,
2013-09-01 11:35:00,86.5,99.9,29.91,NW,315,1.0,5.0,0,0.00,CLR,,0.17,WeatherDisplay:10.37,2013-09-01 16:35:00,
2013-09-01 11:40:00,87.3,99.9,29.91,NW,320,7.0,13.0,0,0.00,CLR,,0.17,WeatherDisplay:10.37,2013-09-01 16:40:00,
2013-09-01 11:45:00,87.5,99.9,29.91,NNW,327,5.0,9.0,0,0.00,CLR,,0.17,WeatherDisplay:10.37,2013-09-01 16:45:00,
2013-09-01 11:50:00,87.7,99.9,29.91,NW,325,5.0,17.0,0,0.00,CLR,,0.17,WeatherDisplay:10.37,2013-09-01 16:50:00,
2013-09-01 11:55:00,88.0,99.9,29.91,NW,323,6.0,13.0,0,0.00,CLR,,0.17,WeatherDisplay:10.37,2013-09-01 16:55:00,
2013-09-01 12:00:00,88.4,99.9,29.91,NW,326,2.0,7.0,0,0.00,CLR,,0.17,WeatherDisplay:10.37,2013-09-01 17:00:00,
2013-09-01 12:05:00,89.4,99.9,29.91,NNW,328,2.0,14.0,0,0.00,CLR,,0.17,WeatherDisplay:10.37,2013-09-01 17:05:00,
2013-09-01 12:10:00,89.4,99.9,29.91,NNW,328,2.0,13.0,0,0.00,CLR,,0.17,WeatherDisplay:10.37,2013-09-01 17:10:00,
2013-09-01 12:15:00,90.1,99.9,29.91,NW,326,6.0,10.0,0,0.00,CLR,,0.17,WeatherDisplay:10.37,2013-09-01 17:15:00,
2013-09-01 12:20:00,90.3,99.9,29.91,NNW,329,6.0,9.0,0,0.00,CLR,,0.17,WeatherDisplay:10.37,2013-09-01 17:20:00,
2013-09-01 12:25:00,91.0,99.9,29.91,NNW,330,5.0,13.0,0,0.00,CLR,,0.17,WeatherDisplay:10.37,2013-09-01 17:25:00,
2013-09-01 12:30:00,90.6,99.9,29.91,NNW,328,6.0,21.0,0,0.00,CLR,,0.17,WeatherDisplay:10.37,2013-09-01 17:30:00,
2013-09-01 12:40:00,91.9,99.9,29.91,NNW,328,3.0,14.0,0,0.00,CLR,,0.17,WeatherDisplay:10.37,2013-09-01 17:40:00,
2013-09-01 12:45:00,91.4,99.9,29.91,NW,324,12.0,15.0,0,0.00,CLR,,0.17,WeatherDisplay:10.37,2013-09-01 17:45:00,
2013-09-01 12:50:00,92.1,99.9,29.91,NW,322,12.0,16.0,0,0.00,CLR,,0.17,WeatherDisplay:10.37,2013-09-01 17:50:00,
2013-09-01 12:55:00,90.7,99.9,29.91,NW,324,8.0,23.0,0,0.00,CLR,,0.17,WeatherDisplay:10.37,2013-09-01 17:55:00,
2013-09-01 13:00:00,92.0,99.9,29.91,NW,323,9.0,16.0,0,0.00,CLR,,0.17,WeatherDisplay:10.37,2013-09-01 18:00:00,
2013-09-01 13:05:00,91.6,99.9,29.91,NW,324,8.0,16.0,0,0.00,CLR,,0.17,WeatherDisplay:10.37,2013-09-01 18:05:00,
2013-09-01 13:10:00,90.7,99.9,29.91,NW,320,16.0,24.0,0,0.00,CLR,,0.17,WeatherDisplay:10.37,2013-09-01 18:10:00,
2013-09-01 13:15:00,89.4,99.9,29.91,NW,319,12.0,22.0,0,0.00,CLR,,0.17,WeatherDisplay:10.37,2013-09-01 18:15:00,
2013-09-01 13:20:00,91.4,99.9,29.91,NW,322,9.0,16.0,0,0.00,CLR,,0.17,WeatherDisplay:10.37,2013-09-01 18:20:00,
2013-09-01 13:25:00,90.8,99.9,29.91,NW,324,9.0,18.0,0,0.00,CLR,,0.17,WeatherDisplay:10.37,2013-09-01 18:25:00,
2013-09-01 13:30:00,90.6,99.9,29.91,NW,325,13.0,19.0,0,0.00,CLR,,0.17,WeatherDisplay:10.37,2013-09-01 18:30:00,
2013-09-01 13:35:00,90.2,99.9,29.91,NNW,327,9.0,20.0,0,0.00,CLR,,0.17,WeatherDisplay:10.37,2013-09-01 18:35:00,
2013-09-01 13:40:00,92.7,99.9,29.91,NNW,328,8.0,17.0,0,0.00,CLR,,0.17,WeatherDisplay:10.37,2013-09-01 18:40:00,
2013-09-01 13:45:00,91.4,99.9,29.91,NNW,327,9.0,21.0,0,0.00,CLR,,0.17,WeatherDisplay:10.37,2013-09-01 18:45:00,
2013-09-01 13:50:00,92.7,99.9,29.91,NNW,328,9.0,13.0,0,0.00,CLR,,0.17,WeatherDisplay:10.37,2013-09-01 18:50:00,
2013-09-01 13:55:00,93.2,99.9,29.91,NNW,331,7.0,10.0,0,0.00,CLR,,0.17,WeatherDisplay:10.37,2013-09-01 18:55:00,
2013-09-01 14:00:00,94.3,99.9,29.91,NNW,332,6.0,10.0,0,0.00,CLR,,0.17,WeatherDisplay:10.37,2013-09-01 19:00:00,
2013-09-01 14:05:00,93.9,99.9,29.91,NNW,328,9.0,12.0,0,0.00,CLR,,0.17,WeatherDisplay:10.37,2013-09-01 19:05:00,
2013-09-01 14:10:00,91.4,99.9,29.91,NNW,327,12.0,15.0,0,0.00,CLR,,0.17,WeatherDisplay:10.37,2013-09-01 19:10:00,
2013-09-01 14:20:00,92.0,99.9,29.91,NW,323,7.0,18.0,0,0.00,CLR,,0.17,WeatherDisplay:10.37,2013-09-01 19:20:00,
2013-09-01 14:25:00,91.0,99.9,29.91,NW,324,6.0,13.0,0,0.00,CLR,,0.17,WeatherDisplay:10.37,2013-09-01 19:25:00,
2013-09-01 14:35:00,92.0,99.9,29.91,NW,324,7.0,14.0,0,0.00,CLR,,0.17,WeatherDisplay:10.37,2013-09-01 19:35:00,
2013-09-01 14:40:00,91.0,99.9,29.91,NW,324,14.0,18.0,0,0.00,CLR,,0.17,WeatherDisplay:10.37,2013-09-01 19:40:00,
2013-09-01 14:45:00,91.0,99.9,29.91,NW,319,10.0,17.0,0,0.00,CLR,,0.17,WeatherDisplay:10.37,2013-09-01 19:45:00,
2013-09-01 14:50:00,91.5,99.9,29.91,NW,323,6.0,10.0,0,0.00,CLR,,0.17,WeatherDisplay:10.37,2013-09-01 19:50:00,
2013-09-01 14:55:00,91.2,99.9,29.91,NW,323,10.0,18.0,0,0.00,CLR,,0.17,WeatherDisplay:10.37,2013-09-01 19:55:00,
2013-09-01 15:00:00,91.1,99.9,29.91,NW,323,6.0,19.0,0,0.00,CLR,,0.17,WeatherDisplay:10.37,2013-09-01 20:00:00,
2013-09-01 15:05:00,92.3,99.9,29.91,NW,326,3.0,11.0,0,0.00,CLR,,0.17,WeatherDisplay:10.37,2013-09-01 20:05:00,
2013-09-01 15:10:00,92.1,99.9,29.91,NW,326,3.0,13.0,0,0.00,CLR,,0.17,WeatherDisplay:10.37,2013-09-01 20:10:00,
2013-09-01 15:15:00,91.4,99.9,29.91,NW,322,8.0,14.0,0,0.00,CLR,,0.17,WeatherDisplay:10.37,2013-09-01 20:15:00,
2013-09-01 15:20:00,91.6,99.9,29.91,NW,326,9.0,13.0,0,0.00,CLR,,0.17,WeatherDisplay:10.37,2013-09-01 20:20:00,
2013-09-01 15:25:00,92.0,99.9,29.91,NNW,329,5.0,10.0,0,0.00,CLR,,0.17,WeatherDisplay:10.37,2013-09-01 20:25:00,
2013-09-01 15:30:00,89.7,99.9,29.91,NNW,332,2.0,9.0,0,0.00,CLR,,0.17,WeatherDisplay:10.37,2013-09-01 20:30:00,
2013-09-01 15:35:00,89.4,99.9,29.91,NW,326,9.0,14.0,0,0.00,CLR,,0.17,WeatherDisplay:10.37,2013-09-01 20:35:00,
2013-09-01 15:40:00,88.7,99.9,29.91,NNW,327,3.0,12.0,0,0.00,CLR,,0.17,WeatherDisplay:10.37,2013-09-01 20:40:00,
2013-09-01 15:45:00,88.5,99.9,29.91,NNW,333,2.0,7.0,0,0.00,CLR,,0.17,WeatherDisplay:10.37,2013-09-01 20:45:00,
2013-09-01 15:50:00,90.0,99.9,29.91,NNW,331,7.0,13.0,0,0.00,CLR,,0.17,WeatherDisplay:10.37,2013-09-01 20:50:00,
2013-09-01 15:55:00,90.1,99.9,29.91,NNW,330,3.0,10.0,0,0.00,CLR,,0.17,WeatherDisplay:10.37,2013-09-01 20:55:00,
2013-09-01 16:00:00,91.2,99.9,29.91,NW,315,2.0,9.0,0,0.00,CLR,,0.17,WeatherDisplay:10.37,2013-09-01 21:00:00,
2013-09-01 16:05:00,90.0,99.9,29.91,NW,314,3.0,8.0,0,0.00,CLR,,0.17,WeatherDisplay:10.37,2013-09-01 21:05:00,
2013-09-01 16:10:00,89.6,99.9,29.91,NNW,330,2.0,7.0,0,0.00,CLR,,0.17,WeatherDisplay:10.37,2013-09-01 21:10:00,
2013-09-01 16:15:00,91.6,99.9,29.91,NNW,332,5.0,8.0,0,0.00,CLR,,0.17,WeatherDisplay:10.37,2013-09-01 21:15:00,
2013-09-01 16:20:00,89.5,99.9,29.91,NNW,339,5.0,9.0,0,0.00,CLR,,0.17,WeatherDisplay:10.37,2013-09-01 21:20:00,
2013-09-01 16:25:00,87.8,99.9,29.91,NNW,335,1.0,10.0,0,0.00,CLR,,0.17,WeatherDisplay:10.37,2013-09-01 21:25:00,
2013-09-01 16:30:00,86.4,99.9,29.91,NNW,338,1.0,7.0,0,0.00,CLR,,0.17,WeatherDisplay:10.37,2013-09-01 21:30:00,
2013-09-01 16:35:00,87.9,99.9,29.91,NNW,332,2.0,7.0,0,0.00,CLR,,0.17,WeatherDisplay:10.37,2013-09-01 21:35:00,
2013-09-01 16:40:00,86.4,99.9,29.91,NW,325,1.0,6.0,0,0.00,CLR,,0.17,WeatherDisplay:10.37,2013-09-01 21:40:00,
2013-09-01 16:45:00,88.6,99.9,29.91,NNW,331,2.0,7.0,0,0.00,CLR,,0.17,WeatherDisplay:10.37,2013-09-01 21:45:00,
2013-09-01 16:50:00,88.2,99.9,29.91,NNW,338,2.0,8.0,0,0.00,CLR,,0.17,WeatherDisplay:10.37,2013-09-01 21:50:00,
2013-09-01 16:55:00,86.5,99.9,29.91,NW,317,2.0,8.0,0,0.00,CLR,,0.17,WeatherDisplay:10.37,2013-09-01 21:55:00,
2013-09-01 17:05:00,86.4,99.9,29.91,NW,315,2.0,7.0,0,0.00,CLR,,0.17,WeatherDisplay:10.37,2013-09-01 22:05:00,
2013-09-01 17:10:00,85.6,99.9,29.91,NW,308,3.0,6.0,0,0.00,CLR,,0.17,WeatherDisplay:10.37,2013-09-01 22:10:00,
2013-09-01 17:15:00,86.1,99.9,29.91,NW,316,1.0,5.0,0,0.00,CLR,,0.17,WeatherDisplay:10.37,2013-09-01 22:15:00,
2013-09-01 17:20:00,85.5,99.9,29.91,NNW,332,2.0,8.0,0,0.00,CLR,,0.17,WeatherDisplay:10.37,2013-09-01 22:20:00,
2013-09-01 17:25:00,84.8,99.9,29.91,WNW,302,1.0,8.0,0,0.00,CLR,,0.17,WeatherDisplay:10.37,2013-09-01 22:25:00,
2013-09-01 17:30:00,84.9,99.9,29.91,WNW,285,3.0,8.0,0,0.00,CLR,,0.17,WeatherDisplay:10.37,2013-09-01 22:30:00,
2013-09-01 17:35:00,84.0,99.9,29.91,NW,317,2.0,7.0,0,0.00,CLR,,0.17,WeatherDisplay:10.37,2013-09-01 22:35:00,
2013-09-01 17:40:00,83.6,99.9,29.91,NW,319,2.0,9.0,0,0.00,CLR,,0.17,WeatherDisplay:10.37,2013-09-01 22:40:00,
2013-09-01 17:45:00,84.0,99.9,29.91,NW,325,5.0,8.0,0,0.00,CLR,,0.17,WeatherDisplay:10.37,2013-09-01 22:45:00,
2013-09-01 17:50:00,83.0,99.9,29.91,NW,316,3.0,7.0,0,0.00,CLR,,0.17,WeatherDisplay:10.37,2013-09-01 22:50:00,
2013-09-01 17:55:00,82.3,99.9,29.91,NW,308,2.0,7.0,0,0.00,CLR,,0.17,WeatherDisplay:10.37,2013-09-01 22:55:00,
2013-09-01 18:00:00,82.7,99.9,29.91,NW,314,1.0,7.0,0,0.00,CLR,,0.17,WeatherDisplay:10.37,2013-09-01 23:00:00,
2013-09-01 18:05:00,82.0,99.9,29.91,NW,318,2.0,6.0,0,0.00,CLR,,0.17,WeatherDisplay:10.37,2013-09-01 23:05:00,
2013-09-01 18:10:00,81.7,99.9,29.91,WNW,301,3.0,7.0,0,0.00,CLR,,0.17,WeatherDisplay:10.37,2013-09-01 23:10:00,
2013-09-01 18:15:00,81.4,99.9,29.91,WNW,301,1.0,7.0,0,0.00,CLR,,0.17,WeatherDisplay:10.37,2013-09-01 23:15:00,
2013-09-01 18:20:00,81.7,99.9,29.91,NW,306,2.0,7.0,0,0.00,CLR,,0.17,WeatherDisplay:10.37,2013-09-01 23:20:00,
2013-09-01 18:25:00,81.3,99.9,29.91,West,278,0.0,4.0,0,0.00,CLR,,0.17,WeatherDisplay:10.37,2013-09-01 23:25:00,
2013-09-01 18:30:00,80.9,99.9,29.91,WNW,288,2.0,7.0,0,0.00,CLR,,0.17,WeatherDisplay:10.37,2013-09-01 23:30:00,
2013-09-01 18:35:00,81.1,99.9,29.91,WNW,300,1.0,3.0,0,0.00,CLR,,0.17,WeatherDisplay:10.37,2013-09-01 23:35:00,
2013-09-01 18:40:00,80.4,99.9,29.91,WNW,292,1.0,4.0,0,0.00,CLR,,0.17,WeatherDisplay:10.37,2013-09-01 23:40:00,
2013-09-01 18:45:00,80.2,99.9,29.91,NNW,327,0.0,3.0,0,0.00,CLR,,0.17,WeatherDisplay:10.37,2013-09-01 23:45:00,
2013-09-01 18:50:00,79.6,99.9,29.91,North,357,1.0,6.0,0,0.00,CLR,,0.17,WeatherDisplay:10.37,2013-09-01 23:50:00,
2013-09-01 18:55:00,79.3,99.9,29.91,NNW,347,0.0,3.0,0,0.00,CLR,,0.17,WeatherDisplay:10.37,2013-09-01 23:55:00,
2013-09-01 19:00:00,79.1,99.9,29.91,WNW,286,0.0,5.0,0,0.00,CLR,,0.17,WeatherDisplay:10.37,2013-09-02 00:00:00,
2013-09-01 19:05:00,78.5,99.9,29.91,WNW,285,1.0,3.0,0,0.00,CLR,,0.17,WeatherDisplay:10.37,2013-09-02 00:05:00,
2013-09-01 19:10:00,78.3,99.9,29.91,North,4,0.0,2.0,0,0.00,CLR,,0.17,WeatherDisplay:10.37,2013-09-02 00:10:00,
2013-09-01 19:15:00,77.9,99.9,29.91,North,355,0.0,2.0,0,0.00,CLR,,0.17,WeatherDisplay:10.37,2013-09-02 00:15:00,
2013-09-01 19:20:00,77.8,99.9,29.91,North,360,1.0,2.0,0,0.00,CLR,,0.17,WeatherDisplay:10.37,2013-09-02 00:20:00,
2013-09-01 19:25:00,77.4,99.9,29.91,North,0,0.0,1.0,0,0.00,CLR,,0.17,WeatherDisplay:10.37,2013-09-02 00:25:00,
2013-09-01 19:30:00,76.4,99.9,29.91,North,0,0.0,1.0,0,0.00,CLR,,0.17,WeatherDisplay:10.37,2013-09-02 00:30:00,
2013-09-01 19:35:00,75.7,99.9,29.91,North,0,0.0,2.0,0,0.00,CLR,,0.17,WeatherDisplay:10.37,2013-09-02 00:35:00,
2013-09-01 19:40:00,75.2,99.9,29.91,North,0,0.0,1.0,0,0.00,CLR,,0.17,WeatherDisplay:10.37,2013-09-02 00:40:00,
2013-09-01 19:45:00,75.6,99.9,29.91,North,0,0.0,0.0,0,0.00,CLR,,0.17,WeatherDisplay:10.37,2013-09-02 00:45:00,
2013-09-01 19:50:00,74.7,99.9,29.91,North,0,0.0,0.0,0,0.00,CLR,,0.17,WeatherDisplay:10.37,2013-09-02 00:50:00,
2013-09-01 19:55:00,73.7,99.9,29.91,North,0,0.0,0.0,0,0.00,CLR,,0.17,WeatherDisplay:10.37,2013-09-02 00:55:00,
2013-09-01 20:00:00,73.3,99.9,29.91,North,0,0.0,2.0,0,0.00,CLR,,0.17,WeatherDisplay:10.37,2013-09-02 01:00:00,
2013-09-01 20:05:00,73.1,99.9,29.91,North,0,0.0,2.0,0,0.00,CLR,,0.17,WeatherDisplay:10.37,2013-09-02 01:05:00,
2013-09-01 20:10:00,72.4,99.9,29.91,North,0,0.0,0.0,0,0.00,CLR,,0.17,WeatherDisplay:10.37,2013-09-02 01:10:00,
2013-09-01 20:15:00,72.0,99.9,29.91,North,0,0.0,0.0,0,0.00,CLR,,0.17,WeatherDisplay:10.37,2013-09-02 01:15:00,
2013-09-01 20:20:00,71.7,99.9,29.91,North,0,0.0,0.0,0,0.00,CLR,,0.17,WeatherDisplay:10.37,2013-09-02 01:20:00,
2013-09-01 20:25:00,71.0,99.9,29.91,North,0,0.0,0.0,0,0.00,CLR,,0.17,WeatherDisplay:10.37,2013-09-02 01:25:00,
2013-09-01 20:30:00,70.9,99.9,29.91,North,0,0.0,0.0,0,0.00,CLR,,0.17,WeatherDisplay:10.37,2013-09-02 01:30:00,
2013-09-01 20:35:00,69.9,99.9,29.91,North,0,0.0,0.0,0,0.00,CLR,,0.17,WeatherDisplay:10.37,2013-09-02 01:35:00,
2013-09-01 20:40:00,69.3,99.9,29.91,North,0,0.0,0.0,0,0.00,CLR,,0.17,WeatherDisplay:10.37,2013-09-02 01:40:00,
2013-09-01 20:45:00,69.2,99.9,29.91,North,0,0.0,0.0,0,0.00,CLR,,0.17,WeatherDisplay:10.37,2013-09-02 01:45:00,
2013-09-01 20:50:00,69.1,99.9,29.91,North,0,0.0,0.0,0,0.00,CLR,,0.17,WeatherDisplay:10.37,2013-09-02 01:50:00,
2013-09-01 20:55:00,69.0,99.9,29.91,North,0,0.0,0.0,0,0.00,CLR,,0.17,WeatherDisplay:10.37,2013-09-02 01:55:00,
2013-09-01 21:00:00,68.3,99.9,29.91,North,0,0.0,0.0,0,0.00,CLR,,0.17,WeatherDisplay:10.37,2013-09-02 02:00:00,
2013-09-01 21:05:00,68.1,99.9,29.91,North,0,0.0,0.0,0,0.00,CLR,,0.17,WeatherDisplay:10.37,2013-09-02 02:05:00,
2013-09-01 21:10:00,68.1,99.9,29.91,North,0,0.0,0.0,0,0.00,CLR,,0.17,WeatherDisplay:10.37,2013-09-02 02:10:00,
2013-09-01 21:15:00,67.8,99.9,29.91,North,0,0.0,0.0,0,0.00,CLR,,0.17,WeatherDisplay:10.37,2013-09-02 02:15:00,
2013-09-01 21:20:00,67.1,99.9,29.91,North,0,0.0,0.0,0,0.00,CLR,,0.17,WeatherDisplay:10.37,2013-09-02 02:20:00,
2013-09-01 21:25:00,66.1,99.9,29.91,North,0,0.0,0.0,0,0.00,CLR,,0.17,WeatherDisplay:10.37,2013-09-02 02:25:00,
2013-09-01 21:30:00,66.1,99.9,29.91,North,0,0.0,0.0,0,0.00,CLR,,0.17,WeatherDisplay:10.37,2013-09-02 02:30:00,
2013-09-01 21:35:00,66.4,99.9,29.91,North,0,0.0,0.0,0,0.00,CLR,,0.17,WeatherDisplay:10.37,2013-09-02 02:35:00,
2013-09-01 21:45:00,64.7,99.9,29.91,North,0,0.0,0.0,0,0.00,CLR,,0.17,WeatherDisplay:10.37,2013-09-02 02:45:00,
2013-09-01 21:50:00,65.1,99.9,29.91,North,0,0.0,0.0,0,0.00,CLR,,0.17,WeatherDisplay:10.37,2013-09-02 02:50:00,
2013-09-01 21:55:00,65.2,99.9,29.91,North,0,0.0,0.0,0,0.00,CLR,,0.17,WeatherDisplay:10.37,2013-09-02 02:55:00,
2013-09-01 22:00:00,64.3,99.9,29.91,North,0,0.0,0.0,0,0.00,CLR,,0.17,WeatherDisplay:10.37,2013-09-02 03:00:00,
2013-09-01 22:05:00,64.5,99.9,29.91,North,0,0.0,0.0,0,0.00,CLR,,0.17,WeatherDisplay:10.37,2013-09-02 03:05:00,
2013-09-01 22:10:00,64.5,99.9,29.91,North,0,0.0,0.0,0,0.00,CLR,,0.17,WeatherDisplay:10.37,2013-09-02 03:10:00,
2013-09-01 22:15:00,64.2,99.9,29.91,North,0,0.0,0.0,0,0.00,CLR,,0.17,WeatherDisplay:10.37,2013-09-02 03:15:00,
2013-09-01 22:20:00,64.2,99.9,29.91,North,0,0.0,0.0,0,0.00,CLR,,0.17,WeatherDisplay:10.37,2013-09-02 03:20:00,
2013-09-01 22:25:00,64.0,99.9,29.91,North,0,0.0,0.0,0,0.00,CLR,,0.17,WeatherDisplay:10.37,2013-09-02 03:25:00,
2013-09-01 22:30:00,63.7,99.9,29.91,North,0,0.0,0.0,0,0.00,CLR,,0.17,WeatherDisplay:10.37,2013-09-02 03:30:00,
2013-09-01 22:35:00,63.4,99.9,29.91,North,0,0.0,0.0,0,0.00,CLR,,0.17,WeatherDisplay:10.37,2013-09-02 03:35:00,
2013-09-01 22:40:00,63.3,99.9,29.91,North,0,0.0,0.0,0,0.00,CLR,,0.17,WeatherDisplay:10.37,2013-09-02 03:40:00,
2013-09-01 22:45:00,63.1,99.9,29.91,North,0,0.0,0.0,0,0.00,CLR,,0.17,WeatherDisplay:10.37,2013-09-02 03:45:00,
2013-09-01 22:50:00,62.6,99.9,29.91,North,0,0.0,0.0,0,0.00,CLR,,0.17,WeatherDisplay:10.37,2013-09-02 03:50:00,
2013-09-01 22:55:00,61.8,99.9,29.91,North,0,0.0,1.0,0,0.00,CLR,,0.17,WeatherDisplay:10.37,2013-09-02 03:55:00,
2013-09-01 23:05:00,61.5,99.9,29.91,North,0,1.0,3.0,0,0.00,CLR,,0.17,WeatherDisplay:10.37,2013-09-02 04:05:00,
2013-09-01 23:10:00,61.6,99.9,29.91,North,0,0.0,2.0,0,0.00,CLR,,0.17,WeatherDisplay:10.37,2013-09-02 04:10:00,
2013-09-01 23:15:00,61.6,99.9,29.91,North,0,1.0,2.0,0,0.00,CLR,,0.17,WeatherDisplay:10.37,2013-09-02 04:15:00,
2013-09-01 23:20:00,61.4,99.9,29.91,North,0,1.0,5.0,0,0.00,CLR,,0.17,WeatherDisplay:10.37,2013-09-02 04:20:00,
2013-09-01 23:25:00,61.4,99.9,29.91,North,0,1.0,3.0,0,0.00,CLR,,0.17,WeatherDisplay:10.37,2013-09-02 04:25:00,
2013-09-01 23:30:00,61.2,99.9,29.91,North,0,2.0,5.0,0,0.00,CLR,,0.17,WeatherDisplay:10.37,2013-09-02 04:30:00,
2013-09-01 23:35:00,61.0,99.9,29.91,North,0,2.0,5.0,0,0.00,CLR,,0.17,WeatherDisplay:10.37,2013-09-02 04:35:00,
2013-09-01 23:40:00,60.9,99.9,29.91,NE,37,2.0,6.0,0,0.00,CLR,,0.17,WeatherDisplay:10.37,2013-09-02 04:40:00,
2013-09-01 23:45:00,60.7,99.9,29.91,ENE,74,1.0,4.0,0,0.00,CLR,,0.17,WeatherDisplay:10.37,2013-09-02 04:45:00,
2013-09-01 23:50:00,60.6,99.9,29.91,ENE,74,0.0,4.0,0,0.00,CLR,,0.17,WeatherDisplay:10.37,2013-09-02 04:50:00,
2013-09-01 23:55:00,60.4,99.9,29.91,ENE,75,0.0,0.0,0,0.00,CLR,,0.17,WeatherDisplay:10.37,2013-09-02 04:55:00,